Location: Erdweis
(48.5167°N, 15.3500°E)
Time: 10:27:43
(UTC+00:00)

NOSS 2-2 (C) - Visible Passes

Search period start: 17 January 2021 00:00
Search period end: 27 January 2021 00:00
Orbit: 465 x 1743 km, 63.3° (Epoch: 12 January)

Date Brightness Start Highest point End Pass type
(mag) Time Alt. Az. Time Alt. Az. Time Alt. Az.
17 Jan 5.7 16:30:40 10° NW 16:32:47 14° N 16:35:08 10° NNE visible
17 Jan 6.0 18:22:27 10° NNW 18:23:44 14° N 18:23:44 14° N visible
18 Jan 5.8 17:37:07 10° NNW 17:39:31 14° N 17:39:49 14° NNE visible
18 Jan 6.7 19:27:12 10° NNW 19:27:13 10° NNW 19:27:13 10° NNW visible
19 Jan 5.8 16:51:32 10° NNW 16:53:33 13° N 16:55:46 10° NNE visible
19 Jan 6.1 18:42:03 10° NNW 18:43:19 16° NNW 18:43:19 16° NNW visible
20 Jan 5.7 17:56:51 10° NNW 17:59:28 18° NNE 17:59:28 18° NNE visible
20 Jan 6.8 19:46:44 10° NW 19:46:51 11° NW 19:46:51 11° NW visible
21 Jan 5.7 17:11:36 10° NNW 17:14:17 15° NNE 17:15:36 14° NNE visible
21 Jan 6.0 19:01:34 10° NNW 19:03:01 19° NNW 19:03:01 19° NNW visible
22 Jan 5.8 16:26:10 10° NNW 16:28:20 13° N 16:30:46 10° NE visible
22 Jan 5.5 18:16:24 10° NNW 18:19:12 24° N 18:19:12 24° N visible
22 Jan 6.9 20:06:23 10° NW 20:06:36 11° NW 20:06:36 11° NW visible
23 Jan 5.5 17:31:14 10° NNW 17:34:53 21° NNE 17:35:27 21° NE visible
23 Jan 6.0 19:21:08 10° NW 19:22:51 23° NNW 19:22:51 23° NNW visible
24 Jan 5.6 16:46:01 10° NNW 16:49:02 17° NNE 16:51:44 12° NE visible
24 Jan 5.1 18:35:55 10° NNW 18:39:09 35° N 18:39:09 35° N visible
24 Jan 7.0 20:26:15 10° NW 20:26:34 12° NW 20:26:34 12° NW visible
25 Jan 5.0 17:50:45 10° NNW 17:55:14 32° NE 17:55:31 32° NE visible
25 Jan 6.0 19:40:50 10° NW 19:42:56 26° NW 19:42:56 26° NW visible
26 Jan 5.3 17:05:35 10° NNW 17:09:33 24° NNE 17:11:58 19° ENE visible
26 Jan 4.8 18:55:31 10° NW 18:59:23 54° NNW 18:59:23 54° NNW visible
26 Jan 7.1 20:46:38 10° WNW 20:46:49 11° WNW 20:46:49 11° WNW visible
